x

Western Prince William Sound (46081) Wave Buoy

8:50am - Sat 27th May 2017 All times are UTC.

  • Sig Wave height 0.3ft
  • Average Period 3s
  • Wind
    4mph, 7mph gusts
  • Sea Temp 48°f
  • Air Temp 41°f
  • Sea Pressure 1022.3mb

More Historic Weather Station data

Upgrade to MSW Pro to gain access to the past 30 days of data for over 8000 Wavebouys and Weather Stations around the globe.

Join Pro

Comparision Forecast

View Surf forecast
   
Sat 05/27 8:50am 0.3ft  -  3s 4 7 mph 1022.3mb 48f 41f
7:50am 0.7ft  -  3s 7 11 mph 1022.2mb 48f 40f
6:50am 0.7ft  -  3s 13 16 mph 1021.8mb 48f 43f
5:50am 0.7ft  -  3s 9 11 mph 1021.9mb 48f 43f
4:50am 0.3ft  -  3s 11 16 mph 1021.9mb 48f 42f
3:50am 0.3ft  -  3s 11 18 mph 1021.9mb 48f 41f
2:50am 0.3ft  -  3s 16 20 mph 1021.8mb 48f 42f
1:50am 0.3ft  -  3s 9 11 mph 1022mb 48f 42f
12:50am 1ft 3s 3s 13 16 mph 1021.8mb 48f 42f
Fri 05/26 11:50pm 1ft 3s 3s 7 11 mph 1022.1mb 48f 40f
10:50pm 1ft 3s 3s 11 16 mph 1022mb 48f 43f
9:50pm 0.7ft  -  2s 16 18 mph 1021.8mb 48f 42f
8:50pm  -   -  3s 11 13 mph 1021.9mb 48f 42f
7:50pm  -   -  3s 9 11 mph 1021.8mb 48f 41f
6:50pm 0.3ft  -  3s 7 7 mph 1021.5mb 47f 41f
5:50pm 0.3ft  -  2s 9 11 mph 1021.5mb 48f 41f
4:50pm 0.3ft  -  2s 9 11 mph 1021mb 47f 43f
3:50pm 0.7ft  -  2s 11 13 mph 1020.8mb 47f 42f
2:50pm 0.3ft  -  2s 13 16 mph 1020.4mb 47f 42f
1:50pm  -   -  3s 9 11 mph 1020.2mb 47f 42f
12:50pm  -   -  3s 7 9 mph 1019.7mb 47f 42f
11:50am  -   -  3s 4 7 mph 1019.2mb 47f 42f
10:50am  -   -  3s 4 7 mph 1019mb 47f 42f
9:50am 0.3ft  -  3s 7 9 mph 1018.6mb 48f 42f
8:50am 0.3ft  -  3s 7 9 mph 1018mb 48f 42f
7:50am 0.7ft  -  3s 7 9 mph 1017.5mb 48f 42f
6:50am 1ft 3s 3s 9 11 mph 1017.3mb 48f 42f
5:50am 1ft 3s 3s 11 13 mph 1016.7mb 48f 42f
4:50am 1ft 3s 3s 9 13 mph 1016.5mb 48f 42f
3:50am  -   -   -  16 20 mph 1016.2mb 48f 42f
2:50am 1.6ft 3s 3s 16 18 mph 1015.5mb 48f 43f
1:50am 1.3ft 3s 3s 16 18 mph 1015.4mb 48f 43f
12:50am 1.6ft 2s 3s 16 18 mph 1015mb 48f 43f
Thu 05/25 11:50pm 2ft 4s 3s 13 18 mph 1014.9mb 48f 44f
10:50pm 2ft 3s 3s 13 16 mph 1015mb 49f 44f
9:50pm 1ft 3s 3s 11 16 mph 1014.9mb 49f 45f
8:50pm 0.3ft  -  3s 9 13 mph 1015mb 49f 45f
7:50pm  -   -  3s 9 9 mph 1015.2mb 49f 45f
6:50pm 0.3ft  -  3s 4 4 mph 1015.4mb 49f 44f
5:50pm 0.3ft  -  3s  -  4 mph 1015.9mb 48f 44f
4:50pm 0.3ft  -  3s 2 4 mph 1016.2mb 48f 43f
3:50pm 0.3ft  -  2s 2 4 mph 1016.3mb 48f 43f
2:50pm 0.3ft  -  2s 4 7 mph 1016.4mb 47f 43f
1:50pm 0.3ft  -  2s 2 4 mph 1016.4mb 48f 43f
12:50pm 0.3ft  -  3s 4 4 mph 1016.5mb 48f 43f
11:50am 0.7ft  -  3s 9 9 mph 1016.4mb 48f 43f
10:50am 0.7ft  -  3s 7 9 mph 1016.6mb 48f 43f
9:50am 1ft 3s 3s 11 13 mph 1016.4mb 48f 43f
8:50am 1ft 3s 3s 13 16 mph 1016.2mb 48f 43f
7:50am 1.3ft 3s 3s 16 18 mph 1016mb 48f 43f
6:50am 1.6ft 3s 3s 18 22 mph 1016.1mb 48f 43f
5:50am 1.6ft 3s 3s 20 25 mph 1015.9mb 48f 43f
4:50am 2ft 3s 3s 22 27 mph 1016.1mb 48f 44f
3:50am 2.5ft 3s 3s 25 29 mph 1016.4mb 48f 44f
2:50am 2.5ft 3s 3s 22 27 mph 1016.7mb 48f 44f
1:50am 2.5ft 3s 3s 20 25 mph 1016.9mb 48f 45f
12:50am 2.5ft 3s 3s 25 29 mph 1017.1mb 48f 45f
Wed 05/24 11:50pm  -   -   -  27 31 mph 1017.2mb 48f -
10:50pm 2.5ft 3s 3s 25 29 mph 1017.9mb 48f 45f
9:50pm 2ft 3s 3s 22 29 mph 1018.4mb 48f 44f
8:50pm 1.3ft 3s 3s 20 27 mph 1019mb 48f 44f
7:50pm 1.3ft 3s 3s 18 22 mph 1019.4mb 47f 44f
6:50pm 1ft 2s 2s 18 22 mph 1020.1mb 48f 43f
5:50pm 0.7ft  -  2s 13 16 mph 1020.6mb 47f 44f
4:50pm 1ft 3s 3s 11 16 mph 1020.6mb 48f 44f
3:50pm 0.7ft  -  3s 13 18 mph 1020.2mb 48f 44f
2:50pm 0.7ft  -  3s 7 7 mph 1020mb 48f 45f
1:50pm 0.7ft  -  3s 13 18 mph 1019.6mb 48f 46f
12:50pm 0.7ft  -  3s 7 9 mph 1019.6mb 48f 47f
11:50am 1ft 2s 2s 11 18 mph 1019.1mb 48f 48f
10:50am 0.7ft  -  2s 16 20 mph 1018.6mb 48f 47f
9:50am 0.7ft  -  2s 7 11 mph 1018.5mb 48f 49f
8:50am 0.7ft  -  3s 2 4 mph 1018.2mb 48f 49f
7:50am 0.3ft  -  2s 4 9 mph 1018mb 48f 50f
6:50am  -   -  2s 7 11 mph 1017.5mb 48f 50f
5:50am 0.3ft  -  2s 7 9 mph 1017.2mb 49f 51f
4:50am 0.3ft  -  2s 7 7 mph 1017.1mb 49f 51f
3:50am 0.3ft  -  2s 9 11 mph 1017.1mb 49f 52f
2:50am 0.3ft  -  3s 4 7 mph 1016.8mb 50f 53f
1:50am 0.3ft  -  3s 9 11 mph 1016.6mb 51f 52f
12:50am 0.3ft  -  3s 9 11 mph 1016.3mb 49f 51f
Tue 05/23 11:50pm  -   -  3s 7 9 mph 1016.3mb 49f 50f
10:50pm 0.3ft  -  3s 4 4 mph 1015.9mb 48f 49f
9:50pm  -   -  4s 4 4 mph 1015.6mb 48f 47f
8:50pm  -   -  3s 4 4 mph 1015.3mb 48f 44f
7:50pm 0.3ft  -  4s  -  2 mph 1015.3mb 47f 43f
6:50pm 0.3ft  -  3s 2 2 mph 1015.2mb 47f 42f
5:50pm  -   -  3s 4 4 mph 1015.4mb 47f 42f
4:50pm  -   -  3s 2 2 mph 1015.4mb 47f 42f
3:50pm  -   -  3s 2 2 mph 1015.5mb 47f 42f
2:50pm  -   -  5s 4 7 mph 1015.7mb 47f 42f
1:50pm  -   -  4s 4 7 mph 1015.5mb 47f 42f
12:50pm  -   -  4s 2 4 mph 1015.6mb 47f 43f
11:50am  -   -  3s 4 7 mph 1015.5mb 47f 44f
10:50am  -   -  3s 2 4 mph 1015.5mb 47f 43f